Regional Weather Roundup
Issued by NWS

Home | Current Version | Previous Version | Graphics & Text | Print | Product List | Glossary Off
Versions: 1 2 3 4 5 6 7 8 9 10 11 12 13 14 15 16 17 18 19 20 21 22 23 24 25 26 27 28 29 30 31 32 33 34 35 36 37 38 39 40 41 42 43 44 45 46 47 48 49 50

000
ASUS43 KTOP 270908
RWRKS

WEATHER ROUNDUP FOR KANSAS
NATIONAL WEATHER SERVICE GOODLAND KS
400 AM CDT FRI MAY 27 2016

NOTE:  "FAIR" INDICATES FEW OR NO CLOUDS BELOW 12,000 FEET WITH NO
SIGNIFICANT WEATHER AND/OR OBSTRUCTIONS TO VISIBILITY.

KSZ001>006-013>018-027>032-041>047-271000-
NORTHWEST KANSAS

CITY           SKY/WX    TMP DP  RH WIND       PRES   REMARKS
GOODLAND       MOCLDY    50  47  89 S3        29.72F
HAYS           CLOUDY    27 N/A N/A E13       29.67F WCI  16
HILL CITY      CLOUDY    57  55  93 SE9       29.70F
RUSSELL        CLOUDY    57  56  96 E16       29.66F
$$

KSZ061>065-074>080-084>089-271000-
SOUTHWEST KANSAS

CITY           SKY/WX    TMP DP  RH WIND       PRES   REMARKS
DODGE CITY     MOCLDY    57  56  96 E10       29.65F
ELKHART          N/A     47  38  71 NW10        N/A
GARDEN CITY    PTCLDY    47  45  93 NW7       29.67F
GREAT BEND     CLOUDY    59  52  77 E9        29.66F
LIBERAL        CLEAR     52  39  62 NW12      29.71R
PRATT          CLOUDY    56  55  95 E10G16    29.68F
$$

KSZ066>073-081>083-090>101-271000-
SOUTHEAST KANSAS

CITY           SKY/WX    TMP DP  RH WIND       PRES   REMARKS
CHANUTE        CLOUDY    60  57  89 E6        29.73F
COFFEYVILLE    CLOUDY    62  59  90 NE10      29.74F
HUTCHINSON     MOCLDY    60  58  92 E6        29.71F
MEDICINE LODGE   N/A     63  59  87 E7        29.68F
NEWTON         CLOUDY    57  54  88 SE5       29.74S
PARSONS        CLOUDY    61  59  93 NE6       29.76F
WICHITA INTL   CLOUDY    61  58  90 NE8       29.72R
WICHITA JABRA  CLOUDY    59  58  96 E8        29.73R
WICHITA MCCONL CLOUDY    60  58  93 E8        29.72S
WINFIELD       CLOUDY    61  58  90 NE12      29.71F
$$

KSZ007>012-019>026-033>040-048>060-102>105-271000-
NORTHEAST KANSAS

CITY           SKY/WX    TMP DP  RH WIND       PRES   REMARKS
CONCORDIA      CLOUDY    58  56  93 SE9       29.69F
EMPORIA        MOCLDY    59  57  93 N8        29.71R
LAWRENCE       LGT RAIN  61  60  97 W6        29.79F
MANHATTAN      LGT RAIN  61  58  90 E12       29.69F
MARYSVILLE     CLOUDY    61  59  94 E16G23    29.66F
OLATHE IND     LGT RAIN  61  59  93 W10       29.81S
OLATHE EXE     LGT RAIN  60  57  89 NW10      29.80S
SALINA         CLOUDY    61  58  90 E7        29.68F
TOPEKA BILLARD LGT RAIN  61  59  93 NE7       29.74F
TOPEKA FORBES  LGT RAIN  62  59  90 N10       29.73F
$$




USA.gov is the U.S. government's official web portal to all federal, state and local government web resources and services.